This is the latest recevied weather packets stored in our database for station/object KA2FNK. If no packets are shown the sender has not sent any weather packets the latest 10 day(s).
| Time | Temp. | Humidity | Pressure | Rain* | Wind** | Luminosity | Snow |
|---|---|---|---|---|---|---|---|
| 1777243336 | 18.33° C | 97% | 1007.6 hPa | 3.05 mm | - | - | - |
| 1777243035 | 18.33° C | 97% | 1007.3 hPa | 2.29 mm | - | - | - |
| 1777242734 | 18.33° C | 96% | 1007.2 hPa | 2.29 mm | - | - | - |
| 1777242434 | 18.33° C | 96% | 1007.2 hPa | 2.29 mm | - | - | - |
| 1777242132 | 18.33° C | 96% | 1007.1 hPa | 2.29 mm | - | - | - |
| 1777241829 | 18.33° C | 96% | 1006.4 hPa | 2.29 mm | - | - | - |
| 1777241528 | 18.33° C | 96% | 1006.2 hPa | 2.29 mm | - | - | - |
| 1777241227 | 18.33° C | 96% | 1006.2 hPa | 2.03 mm | - | - | - |
| 1777240927 | 18.33° C | 96% | 1006.1 hPa | 2.29 mm | - | - | - |
| 1777240625 | 18.33° C | 96% | 1006.2 hPa | 2.03 mm | - | - | - |
| 1777240325 | 18.33° C | 96% | 1006.3 hPa | 2.29 mm | - | - | - |
| 1777240024 | 18.89° C | 95% | 1006.1 hPa | 2.03 mm | - | - | - |
| 1777239723 | 18.89° C | 94% | 1006.1 hPa | 2.29 mm | - | - | - |
| 1777239421 | 18.89° C | 94% | 1006.2 hPa | 2.03 mm | - | - | - |
| 1777239120 | 18.89° C | 92% | 1005.8 hPa | 1.52 mm | - | - | - |
| 1777238819 | 19.44° C | 90% | 1006.1 hPa | 1.27 mm | - | - | - |
| 1777238519 | 19.44° C | 89% | 1006.1 hPa | 1.02 mm | - | - | - |
| 1777238217 | 20° C | 86% | 1005 hPa | 0.76 mm | - | - | - |
| 1777237916 | 20° C | 85% | 1005.5 hPa | 0.76 mm | - | - | - |
| 1777237616 | 20° C | 84% | 1006 hPa | 0.51 mm | - | - | - |
| 1777237315 | 20° C | 84% | 1006.1 hPa | 0.51 mm | - | - | - |
| 1777237014 | 20° C | 77% | 1005.8 hPa | 0.25 mm | - | - | - |
| 1777236713 | 20.56° C | 80% | 1005.8 hPa | 0.25 mm | - | - | - |
| 1777236411 | 20.56° C | 78% | 1006.3 hPa | 0 mm | - | - | - |
| 1777236110 | 21.11° C | 77% | 1006.2 hPa | 0 mm | - | - | - |
* Rain latest hour (hover to see other rain measurements)
** Current wind speed in m/s (hover to see current wind gust speed)